Theta_e
319 324 326 324 324 326 323 321 323 325 323 325 332 333 328 323 323 325 323 318 312 313 320 319 315 316 313 313 313 311 312 313 313 312 311 311 310 309 309 309 308 307 307 305 304 304 304 304 305 305 306 306 307 308 309 310 310 310 308 308 311 313 315 316 317 318 320 322 323 323 324 325 324 324 325 325 326 327 327 326 324 322 322 322 322 324
321 324 325 324 322 323 322 321 322 322 324 328 326 323 325 324 325 324 318 317 314 315 321 320 317 317 314 312 312 311 312 313 313 313 313 313 311 310 311 310 309 308 306 305 304 304 303 304 304 304 305 305 306 307 308 309 309 309 309 309 310 313 315 315 316 319 321 322 323 323 324 324 323 323 324 324 325 326 326 324 322 321 320 321 322 323
325 325 323 320 318 319 319 319 321 322 325 331 325 320 324 324 322 319 315 315 315 314 321 322 318 317 315 313 313 312 313 313 313 313 314 314 313 312 312 311 310 310 310 308 305 303 302 303 303 304 304 305 306 307 308 309 309 309 308 309 310 312 315 316 317 318 320 321 323 323 323 324 323 322 322 322 323 324 324 323 321 320 319 321 323 323
324 325 321 315 317 320 318 318 321 321 323 328 325 323 325 324 320 318 316 316 314 314 319 321 317 316 315 315 314 313 313 314 312 312 312 311 312 312 312 312 312 311 311 310 308 304 301 302 303 303 303 304 305 306 308 309 309 309 308 309 310 311 314 316 317 318 319 320 321 321 322 323 322 322 321 321 322 323 322 322 321 320 319 318 320 322
322 320 313 311 316 323 321 318 319 320 322 323 323 324 325 324 322 319 319 319 318 316 315 317 321 322 323 323 322 321 318 317 315 314 314 312 310 310 311 311 310 311 310 310 310 307 301 300 301 302 303 303 304 305 307 308 308 309 309 309 309 311 313 315 317 317 318 319 319 319 319 319 319 318 318 319 319 320 320 320 320 319 318 317 318 321
322 315 311 315 316 321 324 321 322 323 323 323 323 323 321 321 321 320 320 321 324 325 317 315 322 331 334 330 326 326 325 321 319 318 318 315 312 312 312 311 310 310 309 309 309 308 303 300 301 301 302 302 304 305 306 307 308 309 308 309 309 310 312 314 316 316 317 318 318 317 315 314 313 312 313 316 318 318 319 319 319 318 317 317 319 320
320 313 315 321 318 319 321 321 322 320 322 324 321 320 317 316 318 319 320 320 326 328 316 312 321 328 329 323 320 324 324 320 319 319 317 315 314 314 314 313 312 311 310 310 308 306 303 301 300 300 301 302 303 304 305 306 308 309 308 309 309 309 311 313 315 316 316 317 317 317 316 316 315 314 314 318 318 319 320 319 318 317 317 318 319 319
318 315 316 322 323 321 319 323 322 316 323 327 319 319 318 316 320 321 319 319 325 325 317 318 325 325 324 321 321 322 324 324 324 322 319 316 315 315 314 313 313 313 312 312 312 309 304 300 300 301 301 302 303 303 305 306 307 309 309 309 309 309 311 313 315 315 315 316 316 316 317 318 319 318 318 319 318 319 319 318 317 316 317 318 318 317
316 320 319 319 323 323 321 326 321 315 323 324 314 317 319 319 323 324 323 323 323 322 322 322 321 322 327 329 327 322 321 323 325 324 320 318 319 318 318 318 315 314 313 312 313 310 304 300 300 301 301 302 302 303 304 305 307 308 309 309 310 310 311 313 314 314 315 315 315 316 317 317 317 316 317 317 318 318 317 316 316 316 317 317 317 316
313 316 317 319 322 323 322 319 314 316 321 315 310 315 318 320 323 325 328 327 326 327 325 324 321 319 325 332 332 323 320 324 324 322 319 318 323 323 323 324 320 318 317 315 312 305 301 301 301 301 301 301 302 302 303 305 306 308 309 309 309 310 311 311 312 314 314 314 315 316 316 315 314 312 313 314 315 315 314 314 315 315 316 317 317 315
312 310 312 318 319 319 319 313 310 317 318 312 317 323 322 324 325 326 328 325 328 330 323 323 323 317 321 331 330 320 322 330 325 323 324 323 328 330 330 331 326 325 324 320 315 304 298 300 301 300 301 301 301 302 303 304 306 308 309 309 309 309 309 309 310 312 313 314 314 314 314 314 313 312 312 313 312 311 312 313 314 315 315 316 316 315
313 313 316 317 315 316 318 316 312 312 312 316 329 330 324 326 325 325 328 325 329 329 320 319 319 317 320 328 328 322 323 326 321 323 329 330 334 336 336 332 326 326 325 322 321 312 301 299 300 299 300 300 301 302 302 305 306 307 308 309 309 308 307 307 308 310 312 312 312 313 313 313 313 313 313 313 313 311 312 313 314 314 314 314 314 314
316 319 319 314 312 316 323 322 316 313 314 321 330 327 323 326 324 324 329 327 328 322 314 315 319 319 320 320 320 321 321 321 317 317 323 327 330 331 330 326 321 322 322 320 321 318 312 304 299 298 299 300 300 301 302 304 306 307 308 308 308 307 307 307 308 309 310 310 311 312 312 312 312 313 313 313 314 313 313 314 314 314 314 313 312 312
320 320 316 313 314 317 320 322 320 319 319 322 326 325 325 326 324 326 328 323 322 318 312 311 317 321 321 320 320 318 316 317 316 314 315 317 320 320 318 317 316 314 313 314 314 315 313 304 297 297 299 299 300 301 302 304 306 307 308 307 307 307 307 307 307 308 308 309 311 311 311 311 311 312 312 312 313 313 314 314 314 315 315 314 313 312
320 319 317 316 317 317 316 317 321 322 319 320 323 322 324 327 326 327 329 326 322 323 316 310 316 326 326 322 321 318 316 318 317 316 315 314 313 313 313 314 315 313 311 312 312 311 307 299 296 298 298 299 300 301 302 304 305 306 307 307 307 306 306 306 306 307 308 308 309 310 309 310 310 311 311 312 313 313 314 314 314 314 315 315 315 313
316 319 321 316 315 316 316 317 321 321 318 319 321 321 322 325 324 320 319 321 322 324 322 316 320 326 324 320 318 317 320 324 322 318 318 319 316 313 314 315 315 313 312 313 314 314 306 297 296 298 297 299 300 300 302 303 305 306 306 306 306 306 306 305 306 307 307 307 307 308 308 308 309 309 309 311 312 312 312 312 312 313 314 314 314 313
317 319 318 314 314 314 315 318 319 319 317 318 320 321 319 319 326 324 314 311 314 317 322 322 322 321 318 318 319 318 320 324 323 322 323 323 320 318 318 318 320 318 314 314 315 315 307 297 296 297 297 299 299 300 301 302 304 305 305 306 305 306 305 304 305 306 306 306 306 307 307 307 308 308 309 310 311 311 310 310 311 312 313 313 312 312
320 321 316 313 316 313 310 316 319 317 316 320 322 321 317 315 323 327 320 320 320 321 326 324 321 319 319 319 320 319 320 320 320 321 321 320 320 322 320 318 322 320 316 316 315 312 303 295 295 297 297 299 299 300 301 302 303 304 305 305 305 305 305 304 305 305 305 305 305 306 306 306 307 308 309 310 310 310 310 309 309 310 311 311 312 310
318 319 317 313 316 314 310 315 320 315 312 318 322 320 320 322 324 323 322 326 326 325 331 330 321 317 319 321 319 319 325 328 323 320 319 320 319 319 318 319 323 322 321 323 322 319 309 296 295 297 297 299 299 300 301 301 302 304 304 305 305 305 305 304 304 304 304 304 304 305 305 306 307 308 309 309 308 309 309 309 309 310 310 311 310 309
316 316 319 313 311 314 314 316 321 318 313 314 316 315 318 324 325 323 321 323 322 323 328 329 324 319 320 324 322 317 324 332 331 327 327 329 324 321 322 327 334 337 336 332 326 328 318 298 293 297 297 298 299 299 300 301 301 303 303 304 304 304 304 304 304 303 303 303 303 304 305 305 307 308 308 308 308 308 308 309 309 309 309 310 309 308
315 314 318 315 311 315 319 318 318 319 317 316 317 318 318 319 321 322 320 320 324 328 329 327 322 318 319 322 323 320 322 324 330 335 334 333 329 328 330 335 345 343 336 330 325 329 321 299 293 297 297 298 299 299 299 300 300 302 303 303 304 304 304 303 304 304 304 304 303 303 304 304 306 307 308 307 307 307 307 308 308 308 308 308 306 305
317 316 319 320 316 318 320 317 314 316 317 317 318 318 318 318 319 320 319 319 321 325 326 325 322 319 321 324 323 323 323 319 322 328 329 330 333 335 333 336 344 340 333 329 324 327 318 298 293 296 296 297 298 298 298 299 299 301 302 303 303 303 303 303 303 304 304 304 303 302 303 304 305 306 306 305 305 306 306 307 307 307 307 305 303 303
320 321 322 323 321 320 316 311 310 314 317 317 318 318 318 317 317 319 320 321 320 319 318 321 324 321 320 327 326 323 323 320 320 321 320 325 334 338 335 333 331 328 328 323 317 319 308 294 294 296 296 297 297 297 298 298 299 300 301 302 302 303 303 302 303 303 304 303 302 302 302 302 303 304 303 304 304 305 306 306 306 305 305 304 301 300
319 320 318 321 326 324 318 312 310 311 314 317 318 318 318 317 316 319 321 320 321 322 320 321 324 321 319 326 324 320 320 320 322 320 317 320 328 332 334 336 329 324 322 315 313 313 300 292 295 295 294 295 295 296 298 297 298 299 299 301 301 302 302 302 302 302 302 302 301 301 301 300 301 302 302 302 302 304 305 305 305 304 303 302 299 298
317 320 319 319 323 324 321 318 315 313 314 318 320 318 316 316 317 319 319 317 319 323 323 322 322 320 321 322 319 319 320 320 321 319 317 319 323 324 326 330 331 327 319 313 317 316 303 300 302 295 292 295 294 295 297 296 298 298 298 300 300 301 301 300 301 301 300 300 300 299 300 300 300 301 301 301 301 302 303 303 303 302 301 299 297 295
316 319 318 317 319 320 319 320 319 318 316 317 322 321 317 316 319 319 318 318 319 322 322 320 319 317 320 322 320 321 321 322 323 322 320 318 319 322 325 327 330 329 321 320 326 317 304 307 308 295 292 295 294 295 296 295 297 297 297 299 299 299 300 300 300 300 299 299 298 298 298 298 299 300 300 300 300 301 301 300 299 299 298 297 295 293
321 320 316 316 318 317 316 317 320 322 320 318 320 321 317 316 317 318 318 319 320 320 319 318 318 317 318 321 325 327 325 325 324 323 323 321 317 321 324 323 322 319 315 318 322 313 306 314 316 299 292 294 294 295 296 295 296 296 296 297 297 298 299 299 299 299 298 299 298 297 297 297 299 301 300 299 299 299 299 299 298 298 296 294 292 291
323 321 317 317 317 316 316 316 319 322 320 319 319 318 317 316 316 318 319 319 319 320 319 318 317 318 317 316 323 329 328 326 325 323 324 322 320 321 320 318 320 318 314 313 315 312 312 321 322 305 293 293 294 294 295 295 296 296 296 297 297 297 298 298 298 298 298 297 297 297 296 297 299 301 300 299 298 298 297 297 296 295 294 292 289 288
321 320 318 319 318 317 316 315 319 321 318 318 319 318 317 316 316 317 318 318 319 319 319 318 318 318 317 315 316 321 324 327 326 323 319 315 317 322 321 322 325 324 322 319 316 314 315 320 322 309 295 293 294 294 294 294 295 295 296 296 296 296 297 297 297 297 297 297 297 296 296 296 298 300 299 297 296 296 295 295 294 292 290 289 288 287
319 318 318 319 318 318 317 317 319 320 318 318 318 317 317 316 315 316 317 317 318 318 318 318 319 318 316 315 316 317 321 324 322 319 316 316 320 325 325 324 324 322 323 321 319 319 318 317 316 305 295 293 294 293 294 294 294 295 295 295 295 295 296 296 296 296 296 296 296 296 295 295 296 298 298 296 294 294 293 292 291 289 288 287 286 286
316 318 320 319 318 319 318 318 318 317 317 318 317 317 317 316 315 315 317 317 317 318 318 317 319 318 315 317 319 320 320 319 318 318 319 321 324 325 324 322 321 321 321 320 319 320 319 316 314 307 297 294 295 294 294 294 294 294 295 294 295 295 295 295 295 295 295 295 295 295 295 294 295 295 297 296 294 292 291 290 289 288 287 286 285 285
316 318 320 318 318 320 319 319 319 316 316 316 316 318 318 316 316 315 315 317 317 318 318 318 318 318 317 318 321 323 323 320 319 319 319 320 322 322 321 320 319 320 319 319 319 318 317 318 319 313 301 296 296 295 295 295 294 294 294 294 295 295 295 294 295 294 294 294 294 294 294 294 293 293 294 294 292 290 289 288 287 286 286 285 285 284
318 317 318 318 319 320 319 319 319 317 318 319 317 318 317 315 315 315 315 316 316 316 318 318 318 316 318 323 322 322 323 322 320 319 318 319 319 319 318 317 317 318 318 318 317 316 317 316 312 306 300 298 298 298 297 297 295 295 296 295 295 295 294 294 294 294 293 293 293 293 293 293 292 291 291 291 290 289 288 287 287 286 286 286 285 285
317 316 316 317 319 320 320 318 319 319 321 321 318 317 316 315 315 316 316 316 315 315 315 316 317 315 317 321 320 319 320 320 318 317 318 318 319 319 318 316 315 317 316 316 315 315 316 312 304 300 301 301 300 300 299 298 297 297 297 296 294 294 293 293 293 292 292 292 292 292 292 291 291 290 289 289 289 288 288 287 286 286 286 285 284 284
314 314 315 316 318 320 319 319 321 322 321 322 322 320 318 316 315 315 316 315 314 315 315 315 316 315 315 317 317 317 319 318 317 317 318 320 319 318 318 317 316 316 315 314 316 317 313 305 300 299 301 302 302 300 299 298 297 297 296 294 294 293 293 292 292 291 292 291 291 291 291 290 290 289 289 288 288 287 287 286 285 285 285 285 284 284
314 314 315 316 317 319 320 320 322 323 321 323 326 323 319 318 317 316 316 315 314 314 315 315 314 314 314 315 316 317 319 319 316 315 317 319 318 316 316 316 316 316 316 315 315 313 307 301 300 301 302 302 301 299 298 298 297 295 294 293 293 292 292 292 291 291 291 291 291 291 290 290 289 289 288 288 287 286 285 285 285 285 284 284 283 283
316 314 315 316 317 318 320 320 321 321 321 322 323 321 319 318 317 317 317 317 315 313 314 314 314 314 314 314 316 317 316 316 315 314 316 318 318 315 313 312 313 313 311 308 305 304 302 300 300 301 300 300 299 298 298 297 295 294 293 292 292 291 291 291 290 290 290 290 290 290 290 290 289 289 288 287 287 286 285 285 285 284 284 284 283 283
316 315 316 317 318 318 319 320 321 322 322 321 320 319 319 318 318 318 318 319 318 316 315 313 313 314 314 315 317 316 313 314 316 315 317 319 317 314 312 311 307 302 299 298 297 298 299 299 298 298 298 298 297 296 296 295 294 293 292 291 291 291 290 290 290 290 290 290 290 290 289 289 289 289 288 288 287 287 286 286 285 285 284 284 284 283
316 315 315 316 318 318 319 321 322 322 322 322 320 321 324 323 319 318 319 320 318 316 316 314 314 315 315 315 316 315 314 317 316 315 321 323 317 313 314 312 304 296 292 293 295 296 296 297 297 296 296 296 295 294 294 294 293 292 291 290 290 290 289 289 290 290 290 290 290 289 289 289 289 289 289 288 288 287 286 286 285 285 285 284 284 284
315 315 316 317 318 318 319 320 321 321 322 323 323 323 322 319 317 321 322 321 319 319 319 316 314 315 315 315 315 315 316 317 314 317 323 320 310 306 306 306 304 297 292 292 294 294 295 295 295 295 294 294 294 293 293 293 292 291 290 289 289 289 289 290 290 290 290 290 289 289 289 289 289 289 289 289 288 287 286 286 286 285 285 284 283 283
316 316 316 317 318 318 319 320 320 320 322 323 323 321 317 315 318 323 322 321 324 326 322 317 316 316 314 314 315 314 314 314 316 317 315 310 309 306 298 293 294 292 290 291 292 292 292 293 293 293 293 293 293 292 292 292 291 290 289 289 289 290 290 290 290 289 289 289 289 289 289 289 289 289 289 289 288 287 286 286 286 285 284 284 283 283
317 318 317 318 318 317 318 320 319 320 323 323 319 315 314 317 321 322 322 327 333 332 324 317 315 316 315 314 314 313 313 316 316 314 310 309 313 311 299 292 291 291 290 290 290 291 291 290 290 291 290 291 292 292 292 292 291 289 289 289 289 290 290 290 289 289 289 289 288 288 288 288 288 288 288 288 287 287 286 285 285 285 284 284 283 283
317 317 317 318 318 318 319 320 319 320 324 321 316 313 315 318 321 322 323 326 327 329 329 321 315 315 315 315 315 314 314 315 313 310 309 307 306 305 299 295 295 293 290 289 289 290 290 288 287 288 288 289 291 291 291 292 291 289 288 289 290 290 290 289 289 289 288 288 288 288 288 288 287 288 288 287 287 286 286 285 285 285 284 284 284 284
317 317 317 317 318 318 319 320 320 322 322 317 315 316 315 316 322 329 327 322 319 320 322 320 317 316 315 316 316 314 313 313 309 307 307 304 300 299 297 294 292 290 288 289 289 289 289 287 286 287 287 288 290 290 291 292 291 288 288 289 289 289 289 288 288 288 288 287 287 287 287 287 287 287 287 287 286 286 286 285 285 285 285 286 286 286
315 315 315 315 316 318 318 317 319 321 318 313 314 317 317 315 319 322 321 319 322 317 312 315 320 316 311 313 315 311 310 310 307 304 305 302 298 296 295 292 290 289 288 288 288 288 288 287 286 287 287 288 289 289 290 292 291 289 288 288 288 288 288 288 288 288 287 287 286 286 286 286 286 286 286 286 286 286 286 286 286 286 286 287 287 287
311 309 310 312 314 317 317 314 315 316 313 312 312 312 312 311 311 310 312 317 321 315 308 311 317 313 308 309 313 312 308 307 305 302 300 299 296 293 292 290 288 287 287 287 287 287 287 287 287 287 287 287 288 289 289 290 291 290 288 288 288 288 288 287 287 287 286 286 286 285 285 285 285 285 285 285 286 287 288 288 288 288 288 287 287 286
310 308 309 311 312 315 317 316 316 314 312 312 310 307 306 305 303 302 305 308 309 306 303 305 308 306 303 306 313 313 306 302 304 301 296 295 294 292 292 291 288 286 286 286 286 287 287 287 286 286 286 286 288 289 288 289 290 290 289 288 288 288 288 287 287 286 286 285 285 285 285 285 285 285 285 286 287 288 289 289 288 288 287 286 285 284
310 309 310 310 310 312 313 312 311 309 309 310 308 306 306 306 302 301 300 298 297 297 298 299 299 299 301 304 307 308 302 298 299 299 294 293 292 291 291 290 287 285 286 286 286 287 287 286 285 285 284 284 286 288 288 288 289 289 288 288 288 288 288 287 287 287 286 286 286 285 285 286 286 286 286 287 287 287 286 286 285 285 285 284 284 283
310 309 309 310 309 309 310 310 309 308 311 313 311 307 307 306 304 303 301 297 297 296 297 297 295 294 298 299 299 302 302 297 295 295 293 292 291 290 289 288 286 285 286 286 286 287 286 285 284 283 283 283 285 288 288 288 289 289 289 289 288 288 288 288 287 287 286 286 286 286 286 287 287 287 286 285 284 284 283 283 283 283 283 283 282 282
309 309 308 308 308 308 310 313 312 311 314 316 314 311 311 308 305 305 303 301 301 300 298 298 297 294 294 293 293 298 301 296 292 293 293 291 290 290 288 286 286 286 286 286 286 286 285 284 284 283 282 283 285 287 288 288 289 289 289 289 288 289 289 289 288 287 286 287 287 286 286 286 285 285 284 283 282 282 281 281 281 281 282 282 281 281
310 310 310 310 310 311 312 314 314 312 314 317 316 314 311 306 305 307 305 304 305 302 298 301 305 303 299 294 291 294 298 295 292 293 293 291 290 288 287 286 286 286 286 286 286 285 283 283 283 283 282 283 284 286 287 287 288 288 288 288 288 289 290 289 288 287 285 285 286 285 285 285 284 283 283 282 282 282 281 280 280 280 280 281 281 281
Wind_Speed
3 4 2 5 6 7 7 6 6 6 6 7 5 4 3 3 4 5 3 5 1 2 6 6 7 11 11 11 13 11 4 5 10 10 10 11 10 10 10 11 11 11 13 13 13 15 17 19 21 24 26 27 27 27 27 27 26 25 23 22 22 22 21 22 23 25 26 27 28 26 24 23 25 26 24 23 22 22 22 21 18 15 15 16 17 16
4 4 7 8 8 7 6 7 8 6 6 6 5 3 1 3 5 5 1 4 1 2 5 2 5 13 12 12 12 9 8 10 11 11 13 14 13 11 10 13 12 10 9 9 11 13 15 17 20 22 25 28 30 31 30 29 28 26 24 24 24 24 24 24 25 26 27 28 28 28 27 26 25 24 23 24 24 24 24 22 18 15 14 15 19 20
4 4 9 6 7 6 5 6 7 6 5 4 3 2 2 3 4 5 2 4 1 2 4 3 4 12 13 13 13 11 10 11 12 12 13 14 13 12 11 12 11 9 9 9 10 12 15 18 20 23 26 30 33 32 32 31 29 27 26 25 25 26 27 26 26 26 27 27 27 27 27 27 25 22 23 25 26 25 24 23 19 16 14 15 19 20
1 6 7 5 9 9 6 4 7 6 3 2 3 3 3 3 1 3 3 3 1 1 3 3 4 10 11 11 13 10 8 9 12 13 14 12 13 16 13 9 9 11 12 10 8 9 14 18 21 25 28 30 31 30 32 32 31 30 28 26 26 26 27 28 27 27 28 27 27 26 24 26 26 24 24 24 24 24 24 23 21 18 15 16 20 21
5 5 1 5 6 8 7 4 7 5 1 2 4 5 4 4 4 5 4 3 2 2 2 3 4 7 6 7 8 6 3 6 8 9 12 12 12 13 12 10 10 12 12 11 9 7 12 18 23 27 27 27 29 31 33 34 33 32 29 27 26 26 28 28 28 28 28 27 28 26 24 25 25 24 25 24 24 25 25 23 20 18 15 16 21 23
6 4 4 7 4 6 8 4 5 7 3 3 4 8 9 6 5 4 3 5 4 4 3 3 3 5 5 6 9 5 5 9 6 6 12 13 10 9 9 12 11 10 10 10 10 8 10 17 21 23 25 26 30 33 34 34 33 31 29 27 26 26 28 29 29 30 29 28 29 28 27 26 23 22 24 26 27 27 25 22 20 18 16 18 22 24
2 0 4 7 5 5 6 2 6 7 6 2 4 7 8 5 4 3 0 2 1 3 3 3 0 4 7 10 10 5 7 12 10 10 14 12 9 8 9 10 9 8 8 8 9 8 10 14 17 20 25 29 31 32 32 31 32 31 29 29 28 26 29 31 31 31 30 30 31 31 30 28 26 25 26 27 27 26 25 23 21 19 19 22 24 24
4 3 4 6 6 6 5 3 6 8 8 3 3 4 6 6 6 5 4 2 3 3 3 3 2 3 6 9 8 3 5 10 11 13 14 10 9 9 9 9 8 8 7 6 8 8 9 13 17 21 25 29 31 30 29 30 31 32 30 30 30 28 30 33 33 32 32 32 32 31 29 28 29 28 28 27 26 26 25 23 21 21 22 24 25 25
3 6 6 6 5 4 5 4 7 11 6 4 3 6 6 6 5 5 5 2 1 3 4 1 3 2 6 7 5 3 4 8 10 14 15 10 8 8 7 8 7 7 6 6 7 7 8 13 18 21 23 25 28 28 29 31 32 32 31 31 31 31 31 33 34 33 33 33 32 30 29 29 28 28 28 28 28 27 26 23 22 22 23 25 26 26
1 5 8 7 5 5 4 2 5 8 4 3 6 7 6 6 5 5 4 3 2 3 4 5 5 2 6 6 3 1 3 7 10 12 11 9 8 7 7 7 6 5 4 4 5 6 8 12 15 18 18 21 24 26 28 30 31 32 32 32 32 32 32 33 34 34 33 33 32 31 31 30 29 28 27 28 29 28 26 24 23 24 25 26 26 26
2 1 3 4 4 5 5 4 1 3 5 7 6 7 7 5 5 3 2 4 2 4 4 6 8 4 5 6 4 4 5 7 8 9 8 7 8 7 5 5 4 4 3 3 4 6 8 10 10 13 16 18 22 25 27 28 30 32 33 33 33 33 32 32 34 34 34 34 34 33 32 32 32 30 29 29 29 28 28 26 25 26 27 27 27 27
3 1 1 2 3 5 7 5 4 4 5 6 4 5 4 3 4 4 4 4 1 4 3 3 2 2 6 7 4 5 6 7 8 8 8 8 8 7 5 4 4 3 3 3 3 5 6 6 7 11 15 17 20 24 27 29 30 31 33 33 32 31 31 32 34 34 35 35 35 34 33 33 33 32 30 30 30 31 29 28 28 28 28 28 28 29
2 4 3 1 1 4 7 5 5 4 3 4 5 6 4 2 3 2 3 0 3 5 3 2 1 2 8 9 9 11 12 11 10 9 10 9 9 9 6 5 4 3 3 4 4 4 4 5 8 12 15 17 21 25 28 29 30 32 32 33 32 32 33 34 34 35 35 35 35 35 34 34 33 32 31 31 32 32 31 30 31 31 31 30 30 30
3 5 1 2 1 3 7 6 3 1 2 4 5 6 4 2 1 3 3 1 4 4 2 2 2 3 6 6 12 17 17 13 11 10 10 9 11 11 8 7 6 6 5 5 5 5 5 6 9 12 15 18 21 25 27 29 30 32 32 33 33 32 34 35 35 35 35 36 36 35 35 34 33 32 32 32 33 33 31 31 32 32 32 31 30 30
5 6 5 7 3 6 10 8 6 7 5 5 4 5 5 5 5 5 3 3 5 2 2 3 1 4 4 4 7 11 11 9 8 9 7 8 10 9 7 8 9 9 6 4 6 7 7 8 10 13 16 19 22 25 27 29 30 31 32 33 34 33 34 34 34 35 36 37 37 36 35 35 35 34 33 33 33 32 30 30 33 34 33 31 29 29
4 7 6 2 1 9 11 4 6 8 3 2 3 4 4 5 5 2 3 5 2 2 2 2 4 5 5 7 10 8 8 8 7 7 6 9 10 6 7 8 8 8 6 4 6 6 7 9 11 14 16 19 21 24 27 29 30 31 31 32 33 32 33 35 35 36 36 36 36 35 35 35 35 35 34 34 33 31 29 30 33 35 33 30 29 29
2 5 5 4 2 5 5 2 4 4 3 2 3 4 4 3 7 4 2 1 3 2 4 1 5 7 3 8 11 8 9 9 8 8 8 9 8 6 7 7 7 8 5 5 6 6 6 8 11 14 16 18 21 24 27 29 31 31 31 31 31 31 31 34 35 36 36 35 35 36 36 36 36 35 36 35 33 31 29 30 34 36 33 29 29 30
5 3 5 2 1 2 1 2 3 3 3 6 4 6 3 2 4 4 2 2 3 3 4 1 6 6 3 5 6 3 7 11 11 10 10 9 7 8 8 6 8 8 5 5 6 5 5 7 11 14 17 19 21 24 26 28 30 31 31 31 31 31 32 34 35 36 36 36 36 36 36 36 36 36 36 34 31 30 30 32 36 36 32 28 29 31
4 3 5 2 2 3 3 3 1 4 2 5 5 3 4 3 2 2 3 3 1 3 4 4 5 4 5 6 3 3 8 11 12 10 9 10 10 9 8 8 9 8 5 5 5 5 5 7 11 14 17 19 21 23 25 27 28 29 30 30 31 32 33 33 35 35 36 36 36 36 36 36 36 36 35 33 32 32 32 34 37 35 31 29 30 33
3 3 4 2 2 1 3 2 5 2 2 3 1 2 3 2 4 3 3 4 4 4 3 4 4 4 7 7 6 10 11 10 10 8 8 11 10 8 7 7 7 6 5 5 5 5 5 7 12 15 16 18 20 22 23 25 27 28 29 30 31 32 32 33 34 35 35 36 36 36 36 36 36 36 34 33 33 34 35 36 37 34 31 30 32 35
3 3 4 3 3 1 3 5 8 9 6 3 3 4 3 1 2 1 1 3 4 4 3 2 4 7 7 5 9 12 10 9 9 7 8 8 7 7 8 7 6 5 5 6 5 5 4 6 11 13 15 16 18 20 22 24 26 28 29 30 31 32 32 34 35 36 36 36 36 36 37 37 37 36 34 33 33 34 35 36 35 31 29 30 33 35
3 4 4 2 1 3 4 4 4 8 9 8 8 8 9 6 4 3 4 2 2 3 4 4 3 9 7 5 8 9 8 8 8 7 8 6 6 7 8 7 7 6 6 6 6 5 4 6 9 11 13 15 16 19 21 23 26 28 30 31 32 33 34 35 36 37 37 37 37 37 37 37 37 36 35 34 34 35 35 34 32 29 29 31 33 35
3 3 3 3 4 6 4 2 1 3 4 4 5 6 7 7 7 6 6 4 2 1 2 4 1 10 7 6 7 7 5 5 5 6 7 7 7 7 6 7 6 5 5 5 5 4 4 7 9 10 12 15 17 19 21 24 26 28 31 32 32 34 35 36 36 37 37 37 37 38 37 37 37 36 35 35 35 36 35 33 31 29 29 32 34 35
2 3 3 2 3 3 4 4 2 1 2 3 6 4 4 5 6 5 4 4 3 3 3 3 3 10 8 3 4 5 4 5 6 6 7 8 7 5 6 6 6 5 6 6 6 4 4 7 8 8 12 15 17 20 22 24 27 28 30 32 33 35 34 34 35 36 37 37 37 37 37 37 36 35 35 35 36 36 35 33 30 30 31 32 34 35
5 4 5 3 2 4 4 3 2 2 2 4 5 4 5 6 6 4 1 2 2 5 8 6 6 10 7 3 1 4 4 7 9 6 7 8 8 6 5 6 5 4 6 7 5 3 5 7 6 7 12 14 16 20 22 24 27 29 30 32 34 34 33 33 34 35 36 36 36 36 37 37 36 35 35 35 36 36 35 33 32 31 32 33 34 36
6 5 7 7 7 8 6 6 6 4 3 2 3 6 9 10 11 6 3 4 4 8 8 6 8 12 9 5 4 6 4 6 10 8 6 8 8 7 6 6 5 3 6 8 4 4 8 7 5 7 11 14 17 20 22 24 27 28 30 31 32 32 32 32 33 34 35 36 36 36 37 36 36 35 35 35 35 35 34 34 33 32 33 34 35 36
2 3 9 11 13 13 12 12 6 6 6 7 11 12 12 13 14 10 5 6 9 10 8 9 12 16 16 9 5 7 6 7 9 8 7 8 8 8 8 7 5 5 7 6 4 6 9 7 5 8 11 15 17 20 22 25 26 28 29 30 31 31 31 32 32 33 35 35 36 36 36 36 36 35 35 34 34 34 34 33 33 33 34 35 36 37
2 3 10 14 16 15 16 15 8 9 11 15 17 16 14 13 14 13 11 12 13 10 11 16 16 16 21 17 11 9 8 7 8 9 8 8 7 7 7 6 7 8 7 5 6 8 9 8 6 7 11 15 18 20 23 25 26 27 28 29 29 30 31 32 33 34 35 35 36 36 36 36 36 35 34 34 33 33 33 33 34 34 34 35 36 38
3 5 8 12 15 16 17 14 8 9 10 12 16 18 17 15 16 17 18 20 18 13 14 19 17 17 22 20 15 12 9 8 10 9 7 6 6 5 5 7 9 9 7 6 8 9 9 8 6 6 10 14 17 21 23 24 26 26 27 28 28 29 31 32 33 34 34 35 36 36 34 34 35 34 33 33 33 33 34 34 34 34 34 35 36 38
3 6 8 10 12 15 18 15 9 9 9 8 11 14 15 16 20 21 22 25 25 20 17 18 19 22 21 17 13 11 10 10 7 3 2 5 7 7 7 9 9 8 9 8 8 8 8 8 7 6 8 13 18 21 22 23 26 26 28 28 28 29 31 32 33 34 34 35 36 35 33 33 34 34 33 33 33 33 34 33 33 33 33 34 35 37
2 5 6 6 7 10 14 16 11 8 8 8 6 6 9 14 18 22 23 22 20 18 18 18 21 23 16 8 8 8 8 8 6 6 7 8 8 9 9 9 9 9 10 9 9 10 8 6 5 5 8 14 19 21 23 24 25 26 27 28 29 30 31 32 34 35 35 36 35 33 32 32 33 33 34 34 33 33 33 33 32 32 32 32 33 34
2 2 2 2 6 9 13 17 12 3 3 7 6 6 12 15 16 18 16 14 14 16 18 17 17 18 9 5 7 8 8 9 11 11 11 9 10 11 12 12 11 10 11 10 10 10 8 7 7 7 11 17 20 22 24 24 23 25 28 29 29 30 30 32 34 34 35 34 32 32 32 32 32 32 33 33 33 33 32 32 31 31 31 32 33 34
4 3 2 3 5 9 15 15 6 2 2 7 11 15 20 19 15 11 9 14 17 16 14 13 16 19 10 6 7 10 10 12 13 11 10 12 13 13 13 12 11 10 11 11 10 9 8 8 10 11 14 17 19 21 23 23 23 26 28 28 28 29 30 32 33 33 32 31 30 31 31 31 31 31 31 31 32 31 31 31 31 32 33 34 35 35
6 7 5 4 4 9 13 7 0 3 10 12 14 18 20 17 14 12 14 21 20 15 12 12 14 17 12 8 11 12 10 11 12 12 13 13 11 11 11 11 10 11 12 10 8 9 9 9 10 13 16 18 19 19 19 20 22 24 24 24 26 27 29 30 30 30 29 29 29 30 30 30 30 30 30 30 30 31 31 32 32 32 33 33 34 35
7 8 5 3 4 6 5 2 3 10 13 10 10 12 12 12 16 20 22 24 21 17 15 16 19 21 20 15 11 9 10 11 11 11 12 10 8 9 10 10 10 10 10 8 9 10 10 9 10 13 16 17 17 16 16 17 20 20 21 22 24 26 27 27 27 27 27 27 28 29 29 29 29 29 29 29 29 30 30 31 31 31 31 32 33 34
8 7 4 3 4 3 3 5 8 8 5 5 7 7 7 10 13 15 17 21 21 18 16 19 24 27 25 18 10 7 8 7 8 9 10 9 9 10 10 10 10 10 9 9 10 10 10 10 12 14 14 14 12 12 13 15 17 19 19 20 22 24 24 25 25 25 25 26 27 27 28 28 28 28 28 28 28 28 28 29 29 29 29 29 29 30
10 7 4 4 5 5 6 8 8 6 6 8 11 9 8 10 11 10 11 18 18 16 17 20 25 28 25 17 11 7 5 1 9 11 10 11 13 13 11 10 9 8 9 8 9 11 12 13 13 13 13 11 9 9 11 12 15 17 18 18 20 21 22 23 23 24 24 25 26 27 27 28 28 27 27 28 28 27 27 28 28 28 28 27 27 27
12 9 7 6 5 6 7 8 7 7 7 13 18 11 7 9 10 10 9 13 15 15 19 21 25 26 20 13 10 6 4 2 12 13 9 12 13 11 9 8 6 5 7 7 9 11 11 11 10 10 9 8 7 8 10 12 15 17 18 18 19 20 21 22 22 23 24 24 25 26 26 27 27 27 27 28 28 28 28 27 27 27 26 26 26 26
16 12 10 8 5 5 7 7 7 7 7 13 17 9 7 10 10 9 6 11 18 19 17 18 21 21 15 12 12 7 6 6 14 13 7 10 9 7 7 6 3 3 5 6 7 7 6 5 4 4 6 7 8 9 11 14 16 18 18 19 19 20 20 21 22 22 23 23 23 24 25 25 26 26 27 27 27 27 27 26 26 25 24 24 24 24
14 10 10 9 7 8 9 8 7 5 6 11 10 5 6 11 14 11 6 12 15 13 11 15 17 16 15 15 11 7 8 13 14 9 6 8 6 4 5 5 4 4 4 4 4 5 6 6 7 8 9 10 11 12 14 16 17 18 18 19 19 19 20 20 21 21 21 21 22 23 24 24 25 26 26 26 26 25 24 24 24 23 22 22 21 21
9 8 8 9 11 12 12 10 7 4 6 9 7 6 8 10 11 9 12 10 4 3 9 14 16 16 17 15 9 8 13 14 7 2 6 7 6 4 4 4 5 5 4 5 7 8 9 9 10 11 11 12 13 14 16 17 18 18 18 19 19 19 18 18 18 19 20 20 21 22 23 24 24 24 25 24 24 23 22 22 21 21 21 20 20 19
6 6 6 9 12 11 11 11 9 6 7 8 6 6 8 8 7 10 9 3 3 5 8 12 15 16 17 14 11 12 12 6 4 5 6 6 6 6 5 4 5 5 5 7 8 10 12 12 12 13 13 13 14 15 16 17 17 17 18 18 17 16 16 16 17 18 19 20 21 22 22 23 23 23 22 22 21 21 21 20 19 19 20 20 20 19
7 6 6 8 9 8 8 9 8 7 8 11 9 4 4 9 10 8 4 2 3 7 8 9 12 13 13 12 12 12 8 4 5 6 5 5 4 5 4 5 6 6 7 8 8 11 14 15 14 14 14 14 15 15 15 15 17 17 17 16 15 15 15 16 17 18 19 20 20 21 22 22 22 21 21 20 20 20 21 20 19 19 19 19 19 19
8 7 6 6 7 7 8 9 8 6 7 12 12 8 11 13 7 5 6 5 4 5 6 7 9 11 11 11 11 9 7 6 5 5 5 4 3 4 4 4 5 6 7 8 9 11 15 16 16 15 15 14 14 15 14 14 16 16 14 13 14 15 16 17 17 18 19 20 20 21 21 21 21 21 20 20 20 20 20 20 20 19 19 18 18 18
5 5 4 4 6 7 7 6 5 3 2 8 9 7 9 10 3 3 5 5 4 5 5 6 8 9 7 8 7 7 6 6 6 6 5 5 4 4 4 4 5 7 9 11 11 13 16 18 18 17 16 13 13 13 12 12 14 15 14 13 15 16 17 18 19 20 20 20 21 21 21 21 21 20 20 20 20 20 20 20 20 20 18 17 16 16
3 4 5 4 3 6 6 5 4 5 4 5 6 3 2 4 3 3 1 3 3 5 5 5 6 7 6 7 7 7 6 7 8 6 5 6 5 5 5 5 6 9 11 13 14 16 19 21 19 18 17 14 12 12 11 11 14 15 15 15 15 16 17 19 20 20 20 20 20 21 21 21 20 20 20 19 19 17 17 17 17 17 16 16 15 14
2 2 3 3 5 5 5 6 6 5 4 5 6 5 4 4 4 3 2 4 4 3 4 4 4 6 7 7 7 7 7 8 9 7 5 6 7 6 6 6 7 9 12 14 16 20 22 22 19 18 17 16 13 13 13 13 14 16 16 16 16 16 18 19 20 20 20 20 20 20 20 21 20 19 19 17 16 15 13 14 15 15 15 16 16 16
3 3 2 3 4 3 5 8 7 7 6 5 3 2 3 4 5 4 3 4 5 4 2 1 2 4 6 5 6 7 7 8 9 9 7 6 6 6 6 6 7 9 12 16 18 20 21 20 18 18 18 17 16 16 16 16 17 17 16 16 17 18 19 20 20 21 21 20 20 20 19 19 19 19 18 16 15 14 14 14 14 14 14 14 13 14
1 1 2 3 4 5 9 10 7 7 8 5 4 5 4 3 4 4 4 4 5 5 5 4 2 1 2 3 4 7 8 7 7 8 9 7 7 7 6 7 9 11 14 16 17 18 19 19 19 19 19 18 18 18 19 19 19 18 18 18 18 20 22 22 21 22 21 21 21 20 20 19 19 20 19 18 17 15 13 12 12 12 11 11 11 10
2 4 4 3 4 7 8 6 3 3 7 6 4 6 8 7 5 3 2 2 2 2 3 4 5 5 4 2 1 4 6 6 5 6 7 6 6 7 7 8 11 12 14 16 17 17 18 19 20 21 21 19 20 21 20 20 20 19 20 20 19 21 23 24 23 23 22 22 22 21 21 21 21 20 21 21 20 18 15 12 11 10 10 10 10 9
4 6 6 4 6 8 9 7 5 4 6 7 6 7 7 7 7 6 5 4 4 3 2 1 2 2 3 4 3 1 5 6 6 6 6 5 6 8 9 11 12 13 15 18 18 18 18 18 20 22 22 21 21 22 21 21 21 20 21 21 20 21 24 25 25 24 23 23 23 22 22 23 22 22 22 22 22 21 20 17 13 10 9 9 9 8
Wind_Direction
73 96 170 203 203 202 197 167 142 148 121 116 121 112 157 202 267 257 255 291 248 182 262 243 253 269 267 268 270 279 299 270 269 271 267 263 257 254 249 250 247 242 250 257 255 247 240 237 232 228 225 222 221 221 219 216 216 216 215 209 202 201 203 200 199 198 198 197 195 193 195 201 201 198 198 197 194 196 196 190 187 191 196 208 215 208
67 138 223 222 198 185 170 138 118 107 85 89 121 124 238 217 252 256 237 306 323 184 270 314 292 274 267 268 266 269 282 271 258 256 260 258 256 254 249 251 251 250 258 257 249 240 231 227 225 223 221 218 217 216 214 214 214 214 212 208 204 200 201 202 202 200 200 201 200 198 200 203 197 197 206 205 199 194 192 189 187 191 201 213 213 208
47 218 239 213 157 115 95 116 111 102 91 80 112 127 271 250 267 283 311 330 358 182 273 351 309 277 274 270 264 253 248 254 252 246 251 255 258 257 249 249 254 260 262 250 239 230 223 221 218 218 218 217 218 216 213 213 212 211 209 207 204 202 202 202 203 203 202 204 205 202 198 199 201 206 210 203 196 191 189 190 187 190 202 211 207 204
147 251 251 183 144 110 81 93 101 98 93 99 132 142 252 257 269 283 298 322 332 177 278 327 301 278 277 272 267 257 240 253 259 252 254 253 254 257 256 255 251 252 256 253 240 218 215 217 215 215 217 216 215 213 212 210 209 209 206 203 199 200 203 202 203 205 203 201 203 202 201 201 202 202 198 193 191 190 190 191 190 194 204 218 219 211
216 247 191 117 131 119 109 117 121 133 217 250 177 172 220 231 210 237 282 319 322 7 357 332 306 284 282 282 276 286 301 275 259 255 262 255 247 257 266 264 248 244 252 253 245 216 206 213 215 217 217 215 212 212 212 209 208 208 205 201 198 198 203 205 205 203 202 201 200 197 196 195 192 189 189 190 193 191 191 191 194 204 214 224 220 205
245 237 125 106 95 104 118 154 174 162 184 282 229 203 214 212 204 237 329 5 358 341 345 6 314 285 303 290 267 280 307 281 261 254 263 261 253 250 255 257 250 244 248 249 249 232 210 214 218 218 216 214 214 214 213 211 209 208 205 200 197 197 201 205 207 204 203 205 203 195 187 185 184 185 191 198 198 194 193 197 204 212 215 214 205 196
233 344 89 120 128 115 120 186 224 169 133 287 248 209 207 179 167 209 311 19 313 269 299 39 66 276 304 289 268 275 288 280 284 278 267 266 263 250 244 251 251 246 243 244 248 237 221 217 215 216 216 214 216 216 213 210 208 207 206 202 197 196 199 204 206 206 206 207 204 199 195 195 195 195 199 202 201 200 201 205 209 211 207 204 202 201
169 121 74 111 109 112 140 211 224 159 128 236 245 155 156 158 179 187 155 191 238 270 316 36 119 257 286 277 277 309 293 285 290 283 274 268 260 255 253 252 249 246 238 234 240 234 226 221 215 218 219 218 218 216 210 208 207 206 206 204 200 198 201 204 206 207 208 206 204 202 202 205 206 205 205 204 202 203 204 206 207 207 203 203 207 208
160 165 176 150 111 135 184 221 197 153 133 242 208 122 132 146 158 138 126 170 329 348 308 271 136 251 266 267 301 341 293 284 281 274 275 278 271 264 263 260 256 252 242 234 238 236 230 226 225 225 225 222 219 214 210 208 207 205 204 203 200 200 203 206 206 207 209 208 207 206 206 208 207 207 207 204 201 201 202 204 205 204 202 203 210 212
117 191 191 152 137 190 202 276 192 157 146 193 138 100 83 81 82 85 104 117 54 328 254 196 170 223 269 270 293 329 257 258 262 265 270 280 282 275 270 270 273 276 267 254 248 247 243 238 237 233 227 223 218 213 210 208 205 203 202 200 199 200 203 206 206 207 209 210 210 212 211 210 208 206 204 199 197 197 198 201 201 201 202 205 212 213
312 269 200 147 160 183 138 66 47 123 130 140 117 79 62 43 43 54 51 79 63 292 258 201 188 193 272 271 233 214 219 214 231 262 277 285 285 278 271 266 269 277 277 269 266 264 257 250 244 232 222 217 213 210 207 204 202 201 200 199 198 200 201 203 206 208 209 210 212 213 213 212 209 205 200 196 195 195 196 198 199 200 203 207 211 210
334 349 242 198 156 128 101 69 31 51 100 108 94 88 82 359 13 26 354 49 119 255 263 244 215 174 245 259 245 241 253 233 220 241 260 268 272 270 267 261 257 261 270 276 271 269 260 242 224 213 210 208 204 202 201 201 200 199 199 198 198 200 200 201 203 206 208 209 210 211 210 210 209 206 204 203 201 199 198 199 199 200 204 206 207 206
285 231 245 305 153 138 116 83 38 12 25 77 100 107 99 339 0 348 305 92 222 250 251 244 236 214 243 261 271 264 259 249 232 229 237 248 259 266 269 268 264 257 262 272 265 259 251 225 209 203 200 199 198 199 199 199 198 197 198 198 199 201 201 201 203 205 207 208 210 211 210 210 210 210 212 212 209 206 204 202 199 201 204 204 205 205
273 295 267 145 258 193 154 144 137 194 193 145 147 139 134 138 163 251 264 278 264 270 286 252 219 250 268 272 257 251 250 246 239 238 236 240 253 263 274 280 279 268 253 251 255 254 247 231 215 206 199 197 198 200 199 198 198 198 198 200 201 203 203 203 203 204 206 208 210 212 212 213 213 214 215 215 213 209 206 205 204 205 205 204 207 207
218 280 214 174 205 188 182 185 158 144 161 184 160 138 157 165 172 214 213 214 250 281 313 279 226 202 217 259 251 245 260 265 256 258 258 255 255 260 276 282 279 274 261 241 248 252 249 239 223 211 203 201 201 201 200 199 200 199 200 201 202 203 203 203 203 204 207 209 210 212 213 215 215 215 216 215 213 210 208 211 210 206 204 204 207 209
200 261 247 248 239 170 180 195 124 116 142 212 122 116 192 192 151 160 193 178 183 331 311 240 233 219 210 275 275 254 269 277 265 272 273 264 262 260 266 267 269 274 268 244 247 255 255 244 228 216 208 206 204 202 202 201 201 201 202 203 204 205 205 204 204 206 208 209 210 212 214 215 216 215 213 211 210 211 215 218 214 206 202 203 207 209
166 275 293 345 350 169 181 197 131 139 174 162 144 178 210 165 118 113 219 125 79 266 272 202 248 278 313 283 271 254 265 274 272 269 255 254 267 269 258 255 259 263 255 240 242 247 251 240 228 220 214 210 207 205 205 204 204 204 203 204 204 206 207 206 206 207 208 208 209 212 214 216 217 215 212 210 211 215 218 219 214 206 200 202 208 211
161 255 302 45 174 264 292 118 74 20 124 134 183 204 171 106 101 113 184 358 43 240 272 257 240 275 309 276 292 296 258 260 259 257 257 264 267 258 256 255 261 264 257 251 250 245 243 232 225 222 218 216 213 211 210 209 208 207 206 206 205 206 207 207 207 208 208 208 209 212 213 215 216 214 213 214 218 219 218 217 211 204 202 207 214 215
160 225 302 41 189 288 0 111 108 351 52 138 189 183 117 146 184 113 161 190 213 233 269 284 265 257 223 233 280 244 231 241 247 249 258 264 254 247 255 255 261 273 276 265 256 244 233 221 221 219 217 219 217 217 216 213 211 209 209 209 208 208 209 209 208 209 209 210 211 213 215 215 215 214 215 218 220 219 217 214 209 205 207 214 219 218
135 203 271 328 250 288 31 162 191 217 30 62 122 109 87 169 175 168 164 167 191 204 230 291 309 264 225 206 199 218 224 224 230 238 244 249 245 236 238 243 252 264 260 256 252 244 231 218 219 219 218 220 219 219 219 215 212 211 210 211 210 210 210 210 210 209 210 211 213 214 215 215 215 216 218 220 220 220 218 212 208 209 214 219 221 219
92 201 239 313 323 180 176 218 196 176 160 147 162 167 190 195 119 183 211 132 152 167 182 247 277 266 249 193 189 216 227 217 212 221 232 243 250 240 227 224 229 234 238 240 238 239 235 223 223 223 223 224 222 220 219 216 215 213 212 212 211 210 209 210 210 210 212 213 214 215 215 215 216 217 218 219 220 220 217 212 212 216 223 225 224 219
165 193 188 159 239 196 212 251 205 185 182 178 185 192 195 183 152 193 234 209 125 145 177 176 241 270 257 183 196 216 218 216 216 227 239 240 239 242 241 230 219 217 229 237 236 231 226 219 220 221 222 221 220 218 217 217 216 215 214 213 212 212 212 211 211 211 213 214 215 215 215 216 216 216 218 218 219 218 214 214 217 222 228 228 223 218
147 118 144 183 217 213 233 303 293 216 198 183 208 206 194 192 182 186 210 213 157 147 180 125 203 267 251 179 202 222 209 222 239 243 252 251 231 224 243 260 258 244 240 254 254 240 225 217 209 210 218 219 218 218 216 217 217 216 217 215 213 214 214 213 213 212 213 214 215 215 215 215 215 216 217 217 217 216 215 219 223 226 230 227 221 216
117 114 173 242 291 307 319 337 8 40 124 210 242 209 167 201 199 179 179 178 161 174 180 128 226 260 262 197 212 244 250 256 255 236 235 254 258 233 228 247 259 267 276 274 264 265 253 225 198 196 214 216 217 218 217 217 218 218 218 217 216 216 215 214 214 213 212 212 213 214 214 215 215 216 217 216 216 216 218 222 225 227 228 224 219 214
178 182 179 185 287 315 325 318 307 282 202 223 245 196 170 188 166 127 104 134 178 213 196 188 232 251 270 343 291 261 273 269 261 240 219 238 256 256 254 250 237 255 283 275 274 292 261 227 193 201 217 217 218 219 218 219 219 218 219 218 218 217 216 214 213 212 211 211 212 213 213 214 215 216 217 217 217 218 219 220 222 224 223 219 216 212
181 189 179 180 213 228 227 222 219 215 192 210 240 198 192 189 169 164 194 175 218 233 206 200 240 250 268 332 321 271 267 266 261 250 229 236 245 247 254 257 244 231 245 249 256 264 250 232 200 213 222 221 222 222 221 221 221 220 221 220 220 218 216 215 213 212 211 210 210 211 212 213 214 216 218 219 219 219 220 221 221 220 219 217 215 211
154 208 199 197 210 215 222 228 199 131 145 196 217 206 199 197 186 184 195 195 216 234 232 227 236 250 260 269 276 264 247 241 254 257 243 239 240 239 239 240 240 233 236 236 227 238 246 239 216 219 224 225 226 226 225 225 223 222 221 221 220 218 217 215 213 212 211 210 210 211 212 212 214 217 219 220 220 221 221 222 222 220 218 216 213 210
108 236 218 216 223 222 229 232 192 151 180 201 209 208 201 196 187 188 206 215 215 223 243 238 229 242 255 251 240 242 238 235 248 252 245 239 232 235 248 254 249 245 242 232 226 233 239 239 228 218 223 227 228 229 229 228 227 225 224 223 220 218 217 215 212 212 211 210 211 212 212 212 215 219 220 221 221 221 221 221 221 219 217 214 211 209
167 230 223 225 235 237 243 242 193 175 201 204 205 208 200 189 187 195 211 220 218 215 234 241 232 232 246 249 239 228 220 224 233 232 237 256 256 243 246 253 254 257 253 237 231 231 230 237 237 219 221 226 228 229 229 228 228 226 225 224 221 218 216 214 212 212 210 211 212 213 212 212 214 217 220 220 220 219 220 219 218 216 215 213 211 209
176 227 228 226 238 244 250 250 213 194 218 221 213 212 201 190 191 199 212 220 222 224 232 244 248 244 244 245 239 226 212 217 234 254 242 249 255 248 242 245 252 259 259 255 255 251 240 236 231 221 225 227 227 228 227 226 226 224 223 222 219 217 216 212 211 211 210 212 213 213 212 212 213 214 216 218 218 217 217 216 215 213 213 212 211 209
199 233 243 237 248 254 255 256 241 207 219 240 243 227 210 201 202 209 216 220 224 231 237 242 252 257 252 228 219 222 213 217 243 264 249 241 244 247 248 248 249 252 257 262 266 266 267 261 242 222 226 231 231 228 227 227 225 223 222 221 218 217 214 211 210 210 211 212 213 211 210 211 211 210 212 215 215 215 214 212 211 211 211 210 209 208
193 242 298 253 248 251 249 254 254 198 197 249 256 232 215 211 212 215 218 221 219 224 233 237 247 256 249 161 193 215 201 210 227 233 239 245 243 240 242 243 244 249 255 259 261 265 276 279 262 240 233 236 234 230 229 228 222 220 221 219 217 216 213 210 210 210 211 212 211 209 209 209 208 207 208 211 211 211 210 209 208 208 208 208 207 207
172 191 230 208 225 247 246 250 257 106 204 248 240 228 221 216 218 221 228 233 224 216 221 225 235 246 237 157 196 215 197 209 222 218 224 238 238 237 238 239 240 245 250 254 260 265 267 262 255 249 246 245 241 238 237 230 221 222 224 221 217 214 210 209 209 209 210 210 208 207 207 207 206 205 205 206 207 207 207 206 206 208 209 209 208 207
183 192 211 195 208 247 246 241 141 222 239 241 234 232 229 220 214 216 227 232 226 216 223 234 245 254 247 212 217 221 205 211 219 214 220 231 235 237 240 237 234 239 246 252 257 258 256 255 258 258 257 257 255 252 246 235 229 230 229 222 215 211 208 207 206 206 207 207 206 206 205 205 204 203 203 203 204 205 206 206 207 208 209 208 206 205
191 200 204 183 208 243 236 167 201 234 238 244 246 242 235 222 214 219 229 236 230 220 225 242 252 254 248 236 230 220 210 219 227 227 232 235 226 226 237 238 230 231 239 245 246 248 249 251 258 260 262 266 266 257 244 234 230 226 222 216 210 206 205 203 202 203 204 203 204 204 203 202 201 200 200 201 202 203 203 203 204 205 207 206 205 206
189 199 197 194 208 212 186 197 223 242 268 292 275 246 217 213 212 217 235 244 236 222 218 229 240 247 248 246 240 217 207 230 259 249 236 235 229 220 226 234 228 222 224 227 231 240 247 249 254 260 266 275 273 253 238 231 222 213 208 206 203 201 200 199 199 200 200 201 202 201 200 199 197 197 198 198 199 199 199 201 202 204 205 205 205 206
192 194 195 211 206 201 219 225 236 275 305 281 258 234 197 203 201 193 228 249 240 219 213 224 236 243 246 245 241 224 185 257 285 260 220 215 229 225 221 228 226 219 223 225 230 243 254 258 260 264 268 271 263 241 227 217 206 197 192 191 192 193 193 194 195 197 198 199 200 199 199 197 195 194 195 196 196 197 199 201 203 204 204 203 202 204
200 196 196 212 204 199 226 234 237 251 253 247 248 236 176 183 185 169 205 252 252 223 209 218 232 240 244 242 235 214 147 215 270 261 215 202 221 223 215 224 229 221 225 231 237 247 257 259 259 259 254 240 223 211 203 194 186 181 177 177 182 184 186 189 193 195 196 198 199 198 197 196 195 194 195 196 197 199 200 201 202 204 205 205 205 207
206 204 205 217 214 199 217 228 228 228 229 243 251 240 157 158 149 133 173 247 254 238 212 210 229 237 238 234 222 186 148 221 255 257 211 191 205 200 187 197 216 224 223 226 233 237 235 226 217 203 191 182 172 172 175 175 173 169 168 171 176 179 182 187 192 194 196 196 197 196 195 195 196 196 197 197 198 199 199 199 201 203 205 206 208 209
206 207 212 217 219 216 220 229 233 228 234 246 249 225 167 151 130 127 198 244 252 240 195 195 221 230 226 226 212 167 181 224 246 249 183 162 165 170 175 179 185 199 201 198 200 186 169 164 158 153 155 156 154 157 163 165 164 163 164 168 172 177 183 189 192 194 195 194 193 193 194 195 196 197 198 198 197 197 198 198 199 200 201 202 204 205
201 207 213 216 223 223 222 232 242 232 234 244 233 181 159 138 130 173 223 236 237 181 169 184 201 216 223 221 198 190 215 226 231 184 139 139 144 159 177 172 165 167 159 153 154 150 145 145 144 141 141 144 147 152 158 160 158 157 161 165 172 180 186 189 189 189 189 189 189 189 191 193 195 196 197 197 195 193 194 197 198 197 196 196 196 198
192 204 209 211 222 224 221 231 244 242 224 215 197 162 154 160 189 216 224 211 132 149 175 185 191 207 221 216 200 212 225 213 151 138 147 157 159 158 167 160 138 130 132 139 145 144 135 128 124 125 129 139 146 151 157 159 154 154 161 168 174 180 182 181 182 183 183 184 184 186 187 189 191 192 192 192 191 189 187 190 193 192 191 191 191 192
185 195 208 206 211 219 225 227 231 239 217 185 158 135 188 210 218 214 199 195 185 177 178 187 198 207 212 212 213 216 206 162 152 159 157 164 158 144 154 154 136 133 136 135 141 143 133 121 116 120 128 138 147 152 159 159 153 154 162 168 171 173 173 173 176 178 178 180 181 182 183 184 186 187 186 186 186 184 182 182 184 185 186 187 189 191
187 189 209 207 196 204 220 220 219 229 206 176 167 181 208 213 205 169 179 206 223 200 181 192 211 213 205 207 210 198 171 160 174 171 156 157 153 138 140 138 132 135 135 130 137 141 131 121 115 117 125 137 146 153 160 161 154 154 159 162 163 166 167 169 172 173 174 175 176 177 178 179 180 182 181 180 181 180 178 178 179 182 185 189 193 195
211 213 238 228 206 215 227 229 242 280 214 192 201 213 219 224 215 125 184 208 217 205 188 194 215 216 202 192 180 167 171 174 171 169 162 156 157 148 139 137 138 138 133 127 130 134 128 122 119 118 121 131 144 152 160 163 156 151 151 154 160 165 166 166 167 168 168 169 170 171 171 172 174 176 176 176 177 177 176 177 179 182 186 191 195 197
278 326 339 329 282 265 254 236 252 302 312 261 262 324 321 276 322 14 273 266 249 209 190 195 208 199 182 172 161 167 186 172 156 161 157 145 148 146 137 135 135 135 132 128 130 133 128 123 121 120 117 121 134 146 154 159 156 150 148 153 160 164 164 163 162 160 160 162 164 166 167 167 167 170 172 172 174 177 179 181 183 185 187 191 195 200
277 54 31 321 297 287 265 243 238 249 267 277 292 326 337 313 338 0 294 289 297 254 215 215 206 175 169 174 167 166 175 163 154 159 156 146 152 156 150 145 141 141 140 137 138 138 132 128 126 124 119 119 128 139 144 148 149 147 147 152 157 160 161 161 158 156 156 158 160 162 165 165 163 164 167 170 174 179 182 184 187 188 188 191 195 198
235 114 102 268 272 277 282 286 283 265 255 244 234 264 318 322 330 339 314 306 322 318 288 259 187 165 170 179 163 152 159 165 161 157 157 157 161 159 154 151 149 144 141 142 144 142 138 135 133 129 125 124 130 138 142 142 143 144 146 150 155 159 160 160 159 157 157 158 159 161 165 166 165 165 166 169 175 178 178 181 186 188 189 192 196 199
112 109 226 242 260 278 282 285 291 293 289 275 206 187 196 229 270 304 326 336 342 340 342 358 18 119 160 166 153 143 151 169 169 156 155 159 160 158 155 150 145 142 140 144 148 145 140 137 135 131 129 129 135 141 143 142 143 146 148 152 158 162 161 159 159 158 157 158 160 162 165 167 168 169 167 166 167 169 170 176 184 187 189 192 195 201
137 231 222 215 254 269 268 257 238 273 285 280 242 214 201 188 188 213 271 311 334 319 324 0 19 16 15 28 102 137 146 157 159 149 150 156 156 155 152 144 140 138 138 140 141 140 138 137 136 133 131 133 140 143 143 144 146 150 152 155 162 168 164 159 157 156 156 160 162 163 165 166 166 167 166 163 161 158 154 157 171 180 183 183 185 190
191 212 196 188 228 249 255 242 206 212 257 263 247 228 211 181 168 183 207 209 197 206 221 162 88 49 357 343 340 125 142 148 152 148 144 142 142 141 143 144 143 141 141 141 140 137 136 138 139 137 135 138 143 144 144 146 148 153 156 158 165 171 167 161 157 155 156 161 163 164 165 164 162 164 164 162 162 157 148 142 143 149 159 164 165 170